Flag for United Kingdom Weather past 2 weeks in Saint Helier, Jersey, United Kingdom

Now
50 °F

Passing clouds.


Feels Like: 44 °F
Forecast: 49 / 55 °F
Wind: 20 mph from East

Location: Jersey Airport


UV Index: 0 (Low)

Visibility: N/A


Pressure: 29.89 "Hg

Humidity: 67%

Dew point: 39 °F

Location of Saint HelierLocation

Historic Weather in Saint Helier

°F

Saint Helier temperature yesterday

Maximum temperature yesterday: 55 °F (at 1:20 PM)
Minimum temperature yesterday: 46 °F (at 8:20 PM)
Average temperature yesterday: 51 °F

Past Weeks' High & Low Weather Summary

 TemperatureHumidityPressure
High63 °F (Apr 16, 4:20 PM)100% (Apr 5, 10:20 AM)30.36 "Hg (Apr 5, 10:20 AM)
Low43 °F (Apr 9, 6:50 AM)45% (Apr 16, 2:20 PM)29.74 "Hg (Apr 7, 4:20 PM)
Average52 °F79%30.14 "Hg
* Reported Apr 4 6:20 PM — Apr 19 6:20 PM, Saint Helier, Weather by CustomWeather, © 2014

Note: Actual official high and low records may vary slightly from our data, if they occured in-between our weather recording intervals... More about our weather records

Advertising

Historic Weather Conditions — Data for Previous 24 hours

 ConditionsComfort  
Time TempWeatherWind HumidityBarometerVisibility
6:20 PM
Apr 19
50 °FPassing clouds.15 mph67%29.89 "HgN/A
5:50 PM52 °FPassing clouds.10 mph62%29.89 "HgN/A
5:20 PM52 °FPassing clouds.14 mph62%29.89 "HgN/A
4:50 PM52 °FPassing clouds.16 mph62%29.92 "HgN/A
4:20 PM50 °FPassing clouds.22 mph62%29.92 "HgN/A
3:50 PM50 °FPassing clouds.17 mph67%29.92 "HgN/A
3:20 PM52 °FPassing clouds.16 mph62%29.95 "HgN/A
2:50 PM50 °FPassing clouds.17 mph67%29.95 "HgN/A
2:20 PM48 °FScattered clouds.17 mph66%29.95 "HgN/A
1:50 PM46 °FPartly sunny.10 mph71%29.98 "HgN/A
1:20 PM50 °FScattered clouds.15 mph67%29.98 "HgN/A
12:50 PM50 °FScattered clouds.10 mph71%29.98 "HgN/A
12:20 PM50 °FScattered clouds.10 mph67%29.98 "HgN/A
11:50 AM52 °FScattered showers. Passing clouds.17 mph58%29.98 "HgN/A
11:20 AM48 °FPassing clouds.15 mph62%30.01 "HgN/A
10:50 AM46 °FBroken clouds.16 mph71%30.01 "HgN/A
10:20 AM50 °FScattered clouds.14 mph62%30.01 "HgN/A
9:50 AM48 °FScattered clouds.14 mph66%30.01 "HgN/A
9:20 AM50 °FScattered clouds.10 mph71%30.01 "HgN/A
8:50 AM48 °FScattered clouds.12 mph71%30.01 "HgN/A
8:20 AM46 °FPartly sunny.8 mph76%30.01 "HgN/A
7:50 AM46 °FPartly sunny.9 mph76%30.01 "HgN/A
7:20 AM45 °FPartly sunny.10 mph81%30.01 "HgN/A
6:50 AM45 °FPassing clouds.10 mph81%30.01 "HgN/A
6:20 AM45 °FPassing clouds.10 mph76%30.04 "HgN/A
5:50 AM45 °FPassing clouds.13 mph81%30.01 "HgN/A
5:20 AM45 °FPassing clouds.10 mph76%30.01 "HgN/A
4:50 AM43 °FPassing clouds.9 mph81%30.04 "HgN/A
4:20 AM45 °FPassing clouds.9 mph76%30.04 "HgN/A
3:50 AM45 °FPassing clouds.8 mph81%30.04 "HgN/A
9:20 PM
Apr 18
46 °FPassing clouds.9 mph71%30.09 "HgN/A
8:50 PM46 °FPassing clouds.10 mph71%30.09 "HgN/A
8:20 PM46 °FPassing clouds.13 mph71%30.09 "HgN/A
7:50 PM48 °FPassing clouds.12 mph66%30.09 "HgN/A
7:20 PM50 °FPassing clouds.16 mph62%30.09 "HgN/A
Weather by CustomWeather, © 2014

See weather overview